This is the latest recevied weather packets stored in our database for station/object IK8TGH-3. If no packets are shown the sender has not sent any weather packets the latest 10 day(s).
| Time | Temp. | Humidity | Pressure | Rain* | Wind** | Luminosity | Snow |
|---|---|---|---|---|---|---|---|
| 1777685566 | 16.11° C | 69% | 1020.7 hPa | - | - | - | - |
| 1777684366 | 16.11° C | 69% | 1020.8 hPa | - | - | - | - |
| 1777683165 | 16.11° C | 68% | 1020.7 hPa | - | - | - | - |
| 1777681965 | 16.11° C | 67% | 1020.5 hPa | - | - | - | - |
| 1777680765 | 16.67° C | 66% | 1020.5 hPa | - | - | - | - |
| 1777679564 | 16.67° C | 66% | 1020.5 hPa | - | - | - | - |
| 1777678364 | 16.67° C | 66% | 1020.5 hPa | - | - | - | - |
| 1777677164 | 16.67° C | 65% | 1020.8 hPa | - | - | - | - |
| 1777675964 | 17.22° C | 63% | 1021 hPa | - | - | - | - |
| 1777674763 | 17.22° C | 63% | 1021 hPa | - | - | - | - |
| 1777673563 | 17.22° C | 62% | 1021 hPa | - | - | - | - |
| 1777672362 | 17.22° C | 61% | 1021 hPa | - | - | - | - |
| 1777671162 | 17.22° C | 60% | 1021.1 hPa | - | - | - | - |
| 1777669962 | 17.78° C | 58% | 1021.1 hPa | - | - | - | - |
| 1777668761 | 17.22° C | 61% | 1021 hPa | - | - | - | - |
| 1777667561 | 17.78° C | 58% | 1021 hPa | - | - | - | - |
| 1777666361 | 18.33° C | 60% | 1020.9 hPa | - | - | - | - |
| 1777665160 | 18.33° C | 61% | 1021 hPa | - | - | - | - |
| 1777663960 | 18.33° C | 59% | 1020.8 hPa | - | - | - | - |
| 1777662760 | 17.78° C | 57% | 1020.6 hPa | - | - | - | - |
| 1777661560 | 18.33° C | 53% | 1020.4 hPa | - | - | - | - |
| 1777660359 | 17.78° C | 51% | 1020.1 hPa | - | - | - | - |
| 1777659159 | 18.33° C | 51% | 1019.8 hPa | - | - | - | - |
| 1777657959 | 17.78° C | 49% | 1019.6 hPa | - | - | - | - |
| 1777656758 | 17.78° C | 51% | 1019.4 hPa | - | - | - | - |
* Rain since midnight (hover to see other rain measurements)
** Current wind speed in m/s (hover to see current wind gust speed)